Starlink 11198

operational
NORAD ID: 60114 Int'l Des: 2024-118 Owner: SPXS Country: US Constellation: starlink
LEOCIRCULAR

About Starlink 11198

Description loading...

Live Position

Loading 3D Globe...

Upcoming Passes

Altitude History

Altitude vs Time

uPlot chart will show altitude changes over time

Two-Line Element Set

1 60114U 24118B 25351.19870078 -.00000443 00000-0 12065-5 0 9995
2 60114 53.1586 268.1707 0001267 92.8893 267.2270 15.69707222 85031
Epoch: Dec 17, 2025 • Age: 31 hours

Current Status

Altitude 360.4 km
Velocity 7.69 km/s
Sub-Earth Point 0.87°N, 172.4°E
Launch Date Jun 24, 2024
Age 1.4 years
Type internet

Technical Details

Classification Payload
Mass 960.00 kg
Dry Mass 910.00 kg
Total Mass 960.00 kg
Length 0.30 m
Diameter 4.10 m
Span 29.00 m
Shape Box + pan
Manufacturer SPXS
Bus Type Starlink V2MD
Phase Status In Orbit
Owner/State SPXS/US

Large Constellations

Loading constellations...